Location: Boiro
(42.6475°N, 8.8834°W)
Time: 02:26:37
(UTC+01:00)

Transit 2A Rocket - Pass Details

Date: 04 December 2021
Orbit: 584 x 917 km, 66.7° (Epoch: 23 January)

Event Time Altitude Azimuth Distance (km) Brightness Sun altitude
Rises 17:43:11 0° 329° (NNW) 3,560 8.4 2.1°
Reaches altitude 10° 17:45:46 10° 331° (NNW) 2,602 7.7 1.8°
Maximum altitude 17:51:52 77° 58° (ENE) 905 5.3 0.8°
Drops below altitude 10° 17:57:34 10° 145° (SE) 2,438 7.6 -0.1°
Sets 17:59:55 0° 146° (SSE) 3,321 8.3 -0.5°
